SM2GSR-2 Weather Reports


time (UTC)temp
F
wind
direction
speed
knots
gust
knots
rain 1hr
in
rain 24hr
in
rain mn
in
humidity
%
barometer
mb
20260906091004 49 184 0.0 0.0 0.00 0.01 0.01 69 1005.8
20260906090003 49 184 0.0 0.0 0.00 0.01 0.01 69 1005.6
20260906085504 49 184 0.0 2.6 0.00 0.01 0.01 70 1005.6
20260906085004 48 327 0.0 0.0 0.00 0.01 0.01 72 1005.5
20260906084503 47 324 0.0 0.0 0.00 0.01 0.01 72 1005.5
20260906084003 47 331 0.0 0.0 0.00 0.01 0.01 72 1005.6
20260906083505 47 331 0.0 0.0 0.00 0.01 0.01 71 1005.6
20260906083004 47 332 0.0 0.0 0.00 0.01 0.01 71 1005.5
20260906082504 46 334 0.0 0.0 0.00 0.01 0.01 71 1005.4
20260906082005 47 345 0.0 2.6 0.00 0.01 0.01 71 1005.4
20260906081504 47 67 0.0 0.0 0.00 0.01 0.01 74 1005.3
20260906081003 47 67 0.0 0.0 0.00 0.01 0.01 72 1005.3
20260906080504 46 67 0.0 0.0 0.00 0.01 0.01 77 1005.3
20260906080004 46 67 0.0 0.0 0.00 0.01 0.01 77 1005.4
20260906075503 46 67 0.0 0.0 0.00 0.01 0.01 77 1005.4
20260906075004 46 67 0.0 0.0 0.00 0.01 0.01 77 1005.2
20260906074504 45 67 0.0 0.0 0.00 0.01 0.01 76 1005.3
20260906074004 45 69 0.0 2.6 0.00 0.01 0.01 80 1005.3
20260906073504 45 69 0.0 0.0 0.00 0.01 0.01 80 1005.3
20260906073004 44 69 0.0 0.0 0.00 0.01 0.01 78 1005.3
20260906072504 44 69 0.0 0.0 0.00 0.01 0.01 79 1005.3
20260906072004 44 69 0.0 0.0 0.00 0.01 0.01 84 1005.3
20260906071504 44 69 0.0 0.0 0.00 0.01 0.01 84 1005.3
20260906071003 44 69 0.0 0.0 0.00 0.01 0.01 84 1005.2
20260906070004 43 69 0.0 0.0 0.00 0.01 0.01 84 1005.2
20260906065504 43 69 0.0 0.0 0.00 0.01 0.01 82 1005.2
20260906065004 43 69 0.0 0.0 0.00 0.01 0.01 85 1005.2
20260906064504 43 69 0.0 0.0 0.00 0.01 0.01 85 1005.2
20260906064004 43 69 0.0 0.0 0.00 0.01 0.01 85 1005.2
20260906063504 43 69 0.0 0.0 0.00 0.01 0.01 87 1005.2
20260906062504 43 69 0.0 0.0 0.00 0.01 0.01 86 1005.0
20260906062004 43 69 0.0 0.0 0.00 0.01 0.01 86 1005.0
20260906061504 43 69 0.0 0.0 0.00 0.01 0.01 88 1005.0
20260906061003 42 69 0.0 0.0 0.00 0.01 0.01 87 1004.9
20260906060504 42 69 0.0 0.0 0.00 0.01 0.01 87 1004.8
20260906060004 42 69 0.0 0.0 0.00 0.01 0.01 89 1004.7
20260906055506 42 69 0.0 0.0 0.00 0.01 0.01 89 1004.8
20260906055004 42 69 0.0 0.0 0.00 0.01 0.01 90 1004.8
20260906054503 41 69 0.0 0.0 0.00 0.01 0.01 90 1004.8
20260906054004 41 69 0.0 0.0 0.00 0.01 0.01 90 1004.7
20260906053504 41 69 0.0 0.0 0.00 0.01 0.01 88 1004.7
20260906052504 41 69 0.0 0.0 0.00 0.01 0.01 85 1004.5
20260906052004 41 69 0.0 0.0 0.00 0.01 0.01 85 1004.6
20260906051003 41 69 0.0 0.0 0.00 0.01 0.01 84 1004.4
20260906050504 40 69 0.0 0.0 0.00 0.01 0.01 84 1004.4
20260906050004 40 69 0.0 0.0 0.00 0.01 0.01 84 1004.2
20260906045504 40 69 0.0 0.0 0.00 0.01 0.01 85 1004.3
20260906045003 40 69 0.0 0.0 0.00 0.01 0.01 85 1004.2
20260906044504 40 69 0.0 0.0 0.00 0.01 0.01 85 1004.2
20260906044004 39 69 0.0 0.0 0.01 0.01 0.01 85 1004.0
20260906043504 39 69 0.0 0.0 0.01 0.01 0.01 85 1003.9
20260906042504 39 69 0.0 0.0 0.01 0.01 0.01 86 1003.9
20260906042004 38 69 0.0 0.0 0.01 0.01 0.01 86 1003.8
20260906041004 38 69 0.0 0.0 0.01 0.01 0.01 87 1003.7
20260906040504 38 69 0.0 0.0 0.01 0.01 0.01 87 1003.7
20260906035504 37 69 0.0 0.0 0.01 0.01 0.01 88 1003.5
20260906034504 37 69 0.0 0.0 0.01 0.01 0.01 89 1003.5
20260906034004 37 69 0.0 0.0 0.00 0.00 0.00 89 1003.4
20260906033503 36 69 0.0 0.0 0.00 0.00 0.00 89 1003.3
20260906033004 36 69 0.0 0.0 0.00 0.00 0.00 89 1003.3
20260906032503 36 69 0.0 0.0 0.00 0.00 0.00 90 1003.2
20260906032004 36 69 0.0 0.0 0.00 0.00 0.00 90 1003.2
20260906031503 36 69 0.0 0.0 0.00 0.00 0.00 90 1003.2
20260906031003 36 69 0.0 0.0 0.00 0.00 0.00 90 1003.2
20260906030504 36 69 0.0 0.0 0.00 0.00 0.00 90 1003.1
20260906025504 36 69 0.0 0.0 0.00 0.00 0.00 90 1003.0
20260906024503 37 69 0.0 0.0 0.00 0.00 0.00 90 1003.0
20260906023503 38 69 0.0 0.0 0.00 0.00 0.00 90 1002.9
20260906023004 38 69 0.0 0.0 0.00 0.00 0.00 90 1002.9
20260906022504 38 69 0.0 0.0 0.00 0.00 0.00 90 1002.8
20260906022004 38 69 0.0 0.0 0.00 0.00 0.00 90 1002.9
20260906021504 39 69 0.0 0.0 0.00 0.00 0.00 90 1002.9
20260906020504 39 69 0.0 0.0 0.00 0.00 0.00 90 1002.9
20260906020004 39 69 0.0 0.0 0.00 0.00 0.00 90 1002.5
20260906015504 40 69 0.0 0.0 0.00 0.00 0.00 90 1002.5
20260906015004 40 69 0.0 0.0 0.00 0.00 0.00 90 1002.4
20260906014504 40 69 0.0 0.0 0.00 0.00 0.00 90 1002.5
20260906014004 40 69 0.0 0.0 0.00 0.00 0.00 90 1002.5
20260906013504 40 69 0.0 0.0 0.00 0.00 0.00 90 1002.5
20260906013004 41 69 0.0 0.0 0.00 0.00 0.00 90 1002.4
20260906012004 41 69 0.0 0.0 0.00 0.00 0.00 90 1002.3
20260906011504 41 69 0.0 0.0 0.00 0.00 0.00 90 1002.3
20260906011004 41 69 0.0 0.0 0.00 0.00 0.00 90 1002.3
20260906010504 41 69 0.0 0.0 0.00 0.00 0.00 90 1002.3
20260906010004 41 69 0.0 0.0 0.00 0.00 0.00 90 1002.2
20260906005503 41 69 0.0 0.0 0.00 0.00 0.00 90 1002.2
20260906005004 41 69 0.0 0.0 0.00 0.00 0.00 90 1002.2
20260906004504 41 69 0.0 0.0 0.00 0.00 0.00 90 1002.1
20260906003504 41 69 0.0 0.0 0.00 0.00 0.00 90 1002.0
20260906003004 41 69 0.0 0.0 0.00 0.00 0.00 90 1002.0
20260906002503 41 69 0.0 0.0 0.00 0.00 0.00 90 1002.0
20260906001503 41 69 0.0 0.0 0.00 0.00 0.00 89 1001.9
20260906001003 41 69 0.0 0.0 0.00 0.00 0.00 89 1001.7
20260906000504 41 69 0.0 0.0 0.00 0.00 0.00 89 1001.6
20260906000003 42 69 0.0 0.0 0.00 0.00 0.00 89 1001.5
20260905235503 42 69 0.0 0.0 0.00 0.00 0.00 88 1001.5
20260905235004 42 69 0.0 0.0 0.00 0.00 0.00 88 1001.4
20260905234004 43 69 0.0 0.0 0.00 0.00 0.00 87 1001.3
20260905233504 43 69 0.0 0.0 0.00 0.00 0.00 86 1001.3
20260905233004 43 69 0.9 2.6 0.00 0.00 0.00 86 1001.2
20260905232505 43 69 0.0 0.0 0.00 0.00 0.00 86 1001.2
20260905232004 43 69 0.0 0.9 0.00 0.00 0.00 87 1001.1
20260905231004 44 76 0.0 0.0 0.00 0.00 0.00 89 1001.1
20260905230504 44 75 0.0 0.0 0.00 0.00 0.00 90 1001.1
20260905230004 44 75 0.0 2.6 0.00 0.00 0.00 90 1001.0
20260905225503 44 71 0.0 0.0 0.00 0.00 0.00 89 1000.9
20260905225003 44 76 0.0 0.0 0.00 0.00 0.00 87 1000.9
20260905224503 44 78 0.0 0.0 0.00 0.00 0.00 86 1000.8
20260905224004 44 96 0.0 0.0 0.00 0.00 0.00 85 1000.6
20260905223504 44 51 0.0 0.9 0.00 0.00 0.00 85 1000.5
20260905223003 44 49 0.0 0.0 0.00 0.00 0.00 85 1000.6
20260905222504 44 49 0.0 0.0 0.00 0.00 0.00 85 1000.5
20260905222004 44 49 0.0 0.0 0.00 0.00 0.00 85 1000.4
20260905221504 44 49 0.0 0.0 0.00 0.00 0.00 85 1000.4
20260905221004 44 49 0.0 0.0 0.00 0.00 0.00 85 1000.3
20260905220504 43 49 0.0 0.0 0.00 0.00 0.00 85 1000.3
20260905220003 44 49 0.0 0.0 0.00 0.00 0.00 85 1000.3
20260905215504 43 49 0.0 0.0 0.00 0.00 0.00 85 1000.3
20260905215004 43 49 0.0 0.0 0.00 0.00 0.00 85 1000.1
20260905214504 43 49 0.0 0.0 0.00 0.00 0.00 85 1000.0
20260905214004 43 49 0.0 0.0 0.00 0.00 0.00 85 1000.0
20260905213504 43 49 0.0 0.0 0.00 0.00 0.00 85 1000.0
20260905213004 43 49 0.0 0.0 0.00 0.00 0.00 85 1000.0
20260905212003 43 49 0.0 0.0 0.00 0.00 0.00 85 999.8
20260905211503 43 49 0.0 0.0 0.00 0.00 0.00 85 999.7
20260905211004 43 49 0.0 0.0 0.00 0.00 0.00 85 999.8
20260905210504 43 49 0.0 0.0 0.00 0.00 0.00 85 999.6
20260905210003 43 49 0.0 0.0 0.00 0.00 0.00 85 999.6
20260905205503 42 49 0.0 0.0 0.00 0.00 0.00 86 999.5
20260905205004 42 49 0.0 0.0 0.00 0.00 0.00 85 999.6
20260905203004 41 49 0.0 0.0 0.00 0.00 0.00 87 999.4
20260905202504 41 49 0.0 0.0 0.00 0.00 0.00 88 999.2
20260905202004 41 49 0.0 0.0 0.00 0.00 0.00 88 999.2
20260905201504 41 49 0.0 0.0 0.00 0.00 0.00 88 999.1
20260905201004 41 49 0.0 0.0 0.00 0.00 0.00 88 999.0
20260905200504 41 49 0.0 0.0 0.00 0.00 0.00 89 999.0
20260905200004 40 49 0.0 0.0 0.00 0.00 0.00 89 998.9
20260905195504 40 49 0.0 0.0 0.00 0.00 0.00 89 998.9
20260905195004 40 49 0.0 0.0 0.00 0.00 0.00 89 998.9
20260905194504 40 49 0.0 0.0 0.00 0.00 0.00 90 998.8
20260905193004 41 49 0.0 0.0 0.00 0.00 0.00 90 998.7
20260905192504 41 49 0.0 0.0 0.00 0.00 0.00 90 998.6
20260905192004 41 49 0.0 0.0 0.00 0.00 0.00 90 998.6
20260905191504 41 49 0.0 0.0 0.00 0.00 0.00 89 998.5
20260905191004 41 49 0.0 0.0 0.00 0.00 0.00 90 998.4
20260905190504 42 49 0.0 0.0 0.00 0.00 0.00 89 998.4
20260905190004 42 49 0.0 0.0 0.00 0.00 0.00 89 998.3
20260905185503 42 49 0.0 0.0 0.00 0.00 0.00 89 998.3
20260905185004 43 49 0.0 0.0 0.00 0.00 0.00 89 998.2
20260905184504 43 49 0.0 0.0 0.00 0.00 0.00 88 998.1
20260905184004 44 49 0.0 0.0 0.00 0.00 0.00 88 998.2
20260905183003 45 49 0.0 0.0 0.00 0.00 0.00 91 998.1
20260905182503 45 49 0.0 0.0 0.00 0.00 0.00 87 998.0
20260905182004 46 49 0.0 0.0 0.00 0.00 0.00 87 997.9
20260905181504 46 49 0.0 0.0 0.00 0.00 0.00 87 997.8
20260905181003 47 49 0.0 0.0 0.00 0.00 0.00 86 997.8
20260905180504 47 49 0.0 0.0 0.00 0.00 0.00 86 997.7
20260905180003 48 49 0.0 0.0 0.00 0.00 0.00 85 997.8
20260905175004 49 49 0.0 0.0 0.00 0.00 0.00 84 997.6
20260905173504 51 49 0.0 0.0 0.00 0.00 0.00 83 997.4
20260905173004 51 49 0.0 0.0 0.00 0.00 0.00 81 997.4
20260905172504 51 49 0.0 0.0 0.00 0.00 0.00 80 997.4
20260905172003 52 49 0.0 0.0 0.00 0.00 0.00 81 997.3
20260905171504 52 49 0.0 0.0 0.00 0.00 0.00 80 997.3
20260905171004 53 49 0.0 0.0 0.00 0.00 0.00 79 997.3
20260905170503 53 49 0.0 0.0 0.00 0.00 0.00 74 997.2
20260905170005 53 49 0.0 0.0 0.00 0.00 0.00 72 997.1
20260905165004 53 49 0.0 0.0 0.00 0.00 0.00 71 996.9
20260905163504 53 55 1.7 5.2 0.00 0.00 0.00 71 996.6
20260905163004 52 36 0.9 4.3 0.00 0.00 0.00 74 996.5
20260905162503 51 314 0.0 4.3 0.00 0.00 0.00 79 996.4
20260905162003 52 301 0.0 0.0 0.00 0.00 0.00 80 996.4
20260905161503 52 301 0.0 0.0 0.00 0.00 0.00 77 996.4
20260905161004 53 301 0.0 0.0 0.00 0.00 0.00 76 996.4
20260905160504 53 301 0.0 0.0 0.00 0.00 0.00 74 996.4
20260905160004 54 301 0.0 0.0 0.00 0.00 0.00 73 996.4
20260905155504 54 301 0.0 0.9 0.00 0.00 0.00 72 996.3
20260905155004 54 301 0.0 2.6 0.00 0.00 0.00 72 996.3
20260905154505 54 300 1.7 2.6 0.00 0.00 0.00 73 996.3
20260905154003 54 335 0.0 2.6 0.00 0.00 0.00 74 996.3
20260905153504 54 328 0.9 2.6 0.00 0.00 0.00 75 996.2
20260905152504 54 324 0.0 0.9 0.00 0.00 0.00 77 996.1
20260905152004 54 325 0.0 0.0 0.00 0.00 0.00 76 996.1
20260905151004 54 325 0.0 0.0 0.00 0.00 0.00 72 996.1
20260905150504 55 325 0.0 2.6 0.00 0.00 0.00 69 996.0
20260905150004 55 328 0.0 0.0 0.00 0.00 0.00 70 996.0
20260905145504 55 328 0.0 0.0 0.00 0.01 0.00 74 996.0
20260905144504 54 328 0.0 2.6 0.00 0.02 0.00 72 995.9
20260905144003 54 331 0.9 2.6 0.00 0.02 0.00 68 995.8
20260905143504 54 342 0.0 1.7 0.00 0.02 0.00 67 995.8
20260905143004 54 333 0.9 2.6 0.00 0.02 0.00 68 995.8
20260905142504 54 329 1.7 5.2 0.00 0.02 0.00 67 995.8
20260905142004 54 342 1.7 8.7 0.00 0.02 0.00 66 995.7
20260905141504 55 354 2.6 6.1 0.00 0.02 0.00 65 995.7
20260905141004 55 332 0.0 2.6 0.00 0.02 0.00 64 995.7
20260905140504 56 19 2.6 6.1 0.00 0.02 0.00 62 995.6
20260905135503 58 333 4.3 7.8 0.00 0.02 0.00 61 995.4
20260905135004 58 348 1.7 7.0 0.00 0.02 0.00 63 995.4
20260905134503 58 305 1.7 5.2 0.00 0.03 0.00 64 995.2
20260905134004 57 300 1.7 2.6 0.00 0.03 0.00 71 995.2
20260905133503 55 312 0.0 2.6 0.00 0.03 0.00 75 995.3
20260905133004 55 311 0.0 0.0 0.00 0.03 0.00 71 995.2
20260905132503 55 311 0.0 0.0 0.00 0.03 0.00 70 995.2
20260905132003 55 311 1.7 2.6 0.00 0.03 0.00 68 995.2
20260905131004 56 328 0.0 0.0 0.00 0.03 0.00 68 995.1
20260905130504 56 341 0.0 1.7 0.00 0.03 0.00 68 995.1
20260905130004 56 8 0.0 1.7 0.00 0.03 0.00 72 995.1
20260905125504 55 24 0.0 0.0 0.00 0.03 0.00 70 995.1
20260905125004 55 24 0.0 1.7 0.00 0.03 0.00 67 995.1
20260905124504 56 329 0.0 0.9 0.00 0.03 0.00 66 995.0
20260905124004 57 329 0.9 2.6 0.00 0.03 0.00 64 995.0
20260905123504 58 17 0.9 4.3 0.00 0.04 0.00 62 995.0
20260905123005 58 38 1.7 5.2 0.00 0.04 0.00 64 995.0
20260905122504 58 322 0.0 2.6 0.00 0.05 0.00 64 994.8
20260905122003 57 316 1.7 4.3 0.00 0.07 0.00 71 994.8
20260905121504 57 303 0.9 4.3 0.00 0.08 0.00 69 994.8
20260905121004 56 331 0.9 5.2 0.00 0.08 0.00 67 994.9
20260905120504 56 302 1.7 2.6 0.00 0.08 0.00 70 994.8
20260905120004 56 9 0.0 2.6 0.00 0.08 0.00 65 994.8
20260905115503 57 27 1.7 4.3 0.00 0.08 0.00 66 994.8
20260905115004 57 284 0.0 5.2 0.00 0.08 0.00 68 994.8
20260905114504 56 298 0.0 2.6 0.00 0.08 0.00 69 994.8
20260905114004 56 298 0.9 2.6 0.00 0.08 0.00 70 994.8
20260905113003 55 328 2.6 5.2 0.00 0.08 0.00 71 994.7
20260905112503 55 348 2.6 7.0 0.00 0.09 0.00 68 994.7
20260905111504 55 344 0.0 2.6 0.00 0.13 0.00 71 994.7
20260905111004 54 344 0.0 0.9 0.00 0.18 0.00 72 994.7
20260905110504 54 350 0.9 2.6 0.00 0.20 0.00 72 994.6
20260905110004 55 328 0.0 5.2 0.00 0.20 0.00 70 994.6
20260905105504 55 303 1.7 4.3 0.00 0.20 0.00 71 994.5
20260905104004 55 16 0.0 4.3 0.00 0.20 0.00 76 994.5
20260905103004 53 304 0.0 4.3 0.00 0.20 0.00 77 994.4
20260905102504 54 343 0.9 7.0 0.00 0.20 0.00 74 994.4
20260905102004 55 70 0.9 2.6 0.00 0.20 0.00 70 994.4
20260905101504 55 76 2.6 6.1 0.00 0.20 0.00 72 994.4
20260905101004 55 66 2.6 7.0 0.00 0.20 0.00 75 994.3
20260905095504 54 17 1.7 5.2 0.00 0.20 0.00 73 994.3
20260905095004 54 356 2.6 6.1 0.00 0.20 0.00 75 994.3
20260905094504 54 81 1.7 2.6 0.00 0.20 0.00 78 994.3
20260905094004 53 65 1.7 4.3 0.00 0.20 0.00 80 994.2
20260905093504 52 53 2.6 5.2 0.00 0.20 0.00 77 994.2
20260905093004 52 74 1.7 5.2 0.00 0.20 0.00 78 994.2
20260905092010 52 0 0.9 4.3 0.00 0.20 0.00 79 994.1
20260905091504 51 68 2.6 4.3 0.00 0.20 0.00 80 994.1